Regional Weather Roundup
Issued by NWS Spokane, WA

Home | Current Version | Previous Version | Text Only | Print | Product List | Glossary On
Versions: 1 2 3 4 5 6 7 8 9 10 11 12 13 14 15 16 17 18 19 20 21 22 23 24 25 26 27 28 29 30 31 32 33 34 35 36 37 38 39 40 41 42 43 44 45 46 47 48 49 50
000
NZUS01 KOTX 222025
RWROTX

Eastern Washington/Northern Idaho Roundup
National Weather Service, Spokane WA
100 PM PDT SAT JUL 22 2017

Note: "fair" indicated few or no clouds below 12,000 feet with no
significant weather and/or obstructions to visibility.

...Northeast Washington and Northern Idaho Panhandle...

CITY           SKY/WX    TMP DP  RH WIND       PRES   REMARKS
Spokane Intl   MOSUNNY   82  43  25 SW7       30.17F
Spokane Downto SUNNY     83  44  25 W8        30.16F
Coeur d Alene  SUNNY     82  46  28 VRB3      30.18F
Deer Park      SUNNY     83  43  24 VRB5      30.16F
Sandpoint      SUNNY     81  46  30 SE8       30.15F
Bonners Ferry  FAIR      82  46  28 S13       30.13F

...Southeast Washington and southern Idaho Panhandle...

CITY           SKY/WX    TMP DP  RH WIND       PRES   REMARKS
Walla Walla    SUNNY     87  41  19 VRB5      30.12F
Pullman/Moscow SUNNY     81  43  26 VRB3      30.20F
Lewiston       SUNNY     87  42  20 VRB3      30.14F
Lowell           N/A     88  42  20 CALM      30.11F
Grangeville    FAIR      81  34  18 E3        30.22S

...Columbia Basin...

CITY           SKY/WX    TMP DP  RH WIND       PRES   REMARKS
Ephrata        SUNNY     86  49  27 SE10      30.10F
Moses Lake     SUNNY     87  51  28 VRB6      30.12F
Pasco          SUNNY     88  54  31 N7        30.09F
Richland       CLEAR     91  50  24 E5        30.08F
Hermiston      SUNNY     88  48  25 VRB3      30.09F
Pendleton      SUNNY     89  39  17 N9        30.12F

...East Slopes Cascades...

CITY           SKY/WX    TMP DP  RH WIND       PRES   REMARKS
The Dalles     SUNNY     91  52  26 NW8       30.06F
Yakima         SUNNY     89  48  24 VRB3      30.11F
Ellensburg     SUNNY     89  55  31 SW8       30.13F
Stampede Pass  MOSUNNY   71  56  58 VRB6      30.28F
Wenatchee      SUNNY     86  51  29 NW6       30.09F
Omak           SUNNY     89  45  21 S9        30.08F
Chelan           N/A     84  52  32 SE7         N/A
Sunnyside        N/A     84  48  29 CALM      30.09F

...Southern British Columbia...

CITY           SKY/WX    TMP DP  RH WIND       PRES   REMARKS
Penticton      PTSUNNY   77  52  41 NE5       30.09F
Castlegar      MOSUNNY   79  50  36 N9        30.11F
Cranbrook      PTSUNNY   84  45  24 E10       30.11F
Osoyoos          N/A     86  48  26 S3          N/A
Creston          N/A     81  48  32 NW6         N/A

...Western Montana...

CITY           SKY/WX    TMP DP  RH WIND       PRES   REMARKS
Kalispell      CLEAR     82  42  24 S12       30.15F
Libby            N/A     84  39  20 SW6       30.12F
Missoula       SUNNY     83  35  18 N5        30.17F

...Neighboring Cities...

CITY           SKY/WX    TMP DP  RH WIND       PRES   REMARKS
Seattle        MOSUNNY   78  58  49 VRB6      30.17F
Portland       MOSUNNY   81  62  52 W10       30.13F
Boise          SUNNY     91  40  16 NW14      30.10F
Great Falls    SUNNY     85  31  14 NW12G18   30.13F
Calgary        MOSUNNY   77  43  29 SW6G17    30.05S



USA.gov is the U.S. government's official web portal to all federal, state and local government web resources and services.